FW9268 Weather Reports


Display with metric or nautical units.
time (UTC)temp
F
wind
direction
speed
MPH
gust
MPH
rain 1hr
in
rain 24hr
in
rain mn
in
humidity
%
barometer
mb
20260506221541 41 284 3.0 12.0 0.00 0.00 0.00 51 1016.2
20260506221539 41 286 3.0 14.0 0.00 0.00 0.00 51 1021.9
20260506220041 42 270 5.0 14.0 0.00 0.00 0.00 51 1016.3
20260506220039 42 264 4.0 14.0 0.00 0.00 0.00 52 1021.8
20260506214540 42 355 4.0 13.0 0.00 0.00 0.00 52 1016.3
20260506214535 42 360 4.0 13.0 0.00 0.00 0.00 51 1021.6
20260506213059 42 330 6.0 12.0 0.00 0.00 0.00 50 1016.2
20260506213039 42 308 6.0 12.0 0.00 0.00 0.00 49 1021.7
20260506211549 41 303 3.0 11.0 0.00 0.00 0.00 51 1016.2
20260506211541 41 304 2.0 15.0 0.00 0.00 0.00 51 1021.8
20260506210041 42 290 6.0 14.0 0.00 0.00 0.00 51 1021.9
20260506210037 42 318 6.0 13.0 0.00 0.00 0.00 51 1016.3
20260506204545 42 309 6.0 15.0 0.00 0.00 0.00 50 1016.3
20260506204541 42 231 5.0 15.0 0.00 0.00 0.00 49 1021.8
20260506203040 41 311 8.0 17.0 0.00 0.00 0.00 50 1021.9
20260506203035 41 312 7.0 16.0 0.00 0.00 0.00 50 1016.3
20260506201545 42 271 5.0 17.0 0.00 0.00 0.00 53 1016.3
20260506201540 42 295 5.0 17.0 0.00 0.00 0.00 52 1021.9
20260506200040 42 247 2.0 14.0 0.00 0.00 0.00 51 1021.9
20260506200033 42 247 2.0 13.0 0.00 0.00 0.00 51 1016.3
20260506194541 42 295 9.0 19.0 0.00 0.00 0.00 48 1021.9
20260506194533 42 292 12.0 19.0 0.00 0.00 0.00 48 1016.4
20260506193042 42 313 7.0 20.0 0.00 0.00 0.00 51 1021.8
20260506193036 42 304 6.0 19.0 0.00 0.00 0.00 51 1016.4
20260506191538 42 286 5.0 15.0 0.00 0.00 0.00 49 1021.7
20260506191535 42 269 7.0 15.0 0.00 0.00 0.00 50 1016.1
20260506190040 42 273 6.0 16.0 0.00 0.00 0.00 49 1021.8
20260506190030 42 261 6.0 16.0 0.00 0.00 0.00 51 1016.3
20260506184544 42 259 5.0 16.0 0.00 0.00 0.00 49 1021.6
20260506184529 42 267 5.0 16.0 0.00 0.00 0.00 49 1016.1
20260506183042 42 281 5.0 13.0 0.00 0.00 0.00 48 1021.7
20260506183036 42 281 5.0 13.0 0.00 0.00 0.00 49 1016.3
20260506181540 42 305 8.0 16.0 0.00 0.00 0.00 47 1021.6
20260506181527 42 245 10.0 16.0 0.00 0.00 0.00 47 1016.2
20260506180045 43 284 5.0 14.0 0.00 0.00 0.00 48 1021.7
20260506180027 43 284 5.0 12.0 0.00 0.00 0.00 49 1016.2
20260506174539 42 279 4.0 17.0 0.00 0.00 0.00 47 1021.7
20260506174525 42 279 6.0 15.0 0.00 0.00 0.00 47 1016.1
20260506173057 41 242 5.0 16.0 0.00 0.00 0.00 50 1021.9
20260506173024 41 229 7.0 16.0 0.00 0.00 0.00 50 1016.5
20260506171536 41 310 6.0 17.0 0.00 0.00 0.00 50 1021.9
20260506171526 41 311 5.0 17.0 0.00 0.00 0.00 50 1016.4
20260506170044 41 360 8.0 14.0 0.00 0.00 0.00 47 1022.0
20260506170019 41 313 9.0 14.0 0.00 0.00 0.00 47 1016.4
20260506164541 40 267 5.0 15.0 0.00 0.00 0.00 49 1021.8
20260506164516 40 267 3.0 13.0 0.00 0.00 0.00 49 1016.3
20260506163040 41 317 4.0 15.0 0.00 0.00 0.00 51 1022.0
20260506163016 41 294 3.0 15.0 0.00 0.00 0.00 52 1016.3
20260506161539 40 338 6.0 15.0 0.00 0.00 0.00 47 1022.3
20260506161514 40 343 5.0 15.0 0.00 0.00 0.00 48 1016.5
20260506160037 40 328 5.0 14.0 0.00 0.00 0.00 53 1022.3
20260506160010 39 342 3.0 11.0 0.00 0.00 0.00 53 1016.6
20260506154540 38 321 6.0 15.0 0.00 0.00 0.00 54 1022.3
20260506154509 38 320 6.0 15.0 0.00 0.00 0.00 55 1016.5
20260506153046 38 292 2.0 15.0 0.00 0.00 0.00 61 1022.3
20260506153010 38 309 2.0 15.0 0.00 0.00 0.00 62 1016.6
20260506151541 38 331 5.0 13.0 0.00 0.00 0.00 57 1022.2
20260506151505 38 337 6.0 11.0 0.00 0.00 0.00 57 1016.4
20260506150042 37 0 4.0 12.0 0.00 0.00 0.00 58 1022.0
20260506150003 37 282 3.0 12.0 0.00 0.00 0.00 59 1016.2
20260506144607 37 327 5.0 15.0 0.00 0.00 0.00 58 1016.1
20260506144541 37 313 3.0 15.0 0.00 0.00 0.00 59 1022.0
20260506143103 37 283 6.0 12.0 0.00 0.00 0.00 58 1015.9
20260506143037 37 276 6.0 12.0 0.00 0.00 0.00 57 1021.9
20260506141554 37 290 3.0 11.0 0.00 0.00 0.00 57 1015.8
20260506141540 37 290 5.0 11.0 0.00 0.00 0.00 57 1021.9
20260506140051 36 330 3.0 11.0 0.00 0.00 0.00 60 1015.8
20260506140041 36 331 5.0 11.0 0.00 0.00 0.00 60 1021.8
20260506134549 36 306 4.0 12.0 0.00 0.00 0.00 59 1015.7
20260506134539 36 296 5.0 12.0 0.00 0.00 0.00 58 1021.8
20260506133048 36 322 1.0 8.0 0.00 0.00 0.00 65 1015.6
20260506133046 36 323 2.0 8.0 0.00 0.00 0.00 62 1021.4
20260506131550 36 292 2.0 10.0 0.00 0.00 0.00 64 1021.4
20260506131544 36 298 3.0 10.0 0.00 0.00 0.00 63 1015.6
20260506130054 35 286 2.0 8.0 0.00 0.00 0.00 65 1021.4
20260506130041 35 286 2.0 8.0 0.00 0.00 0.00 66 1015.5
20260506124545 35 290 2.0 8.0 0.00 0.00 0.00 66 1021.3
20260506124538 35 319 3.0 9.0 0.00 0.00 0.00 66 1015.6
20260506123042 34 0 2.0 8.0 0.00 0.00 0.00 68 1021.3
20260506123034 34 266 1.0 8.0 0.00 0.00 0.00 68 1015.7
20260506121539 34 277 1.0 8.0 0.00 0.00 0.00 68 1021.3
20260506121530 34 277 0.0 8.0 0.00 0.00 0.00 69 1015.6
20260506120038 34 329 0.0 3.0 0.00 0.00 0.00 70 1015.3
20260506120036 34 329 0.0 3.0 0.00 0.00 0.00 69 1021.1
20260506114542 33 0 0.0 4.0 0.00 0.00 0.00 72 1020.8
20260506114523 33 329 0.0 3.0 0.00 0.00 0.00 72 1015.1
20260506113050 33 0 0.0 4.0 0.00 0.00 0.00 71 1020.3
20260506113027 33 330 0.0 3.0 0.00 0.00 0.00 72 1014.6
20260506111541 33 0 0.0 3.0 0.00 0.00 0.00 71 1020.3
20260506111516 33 330 0.0 3.0 0.00 0.00 0.00 72 1014.5
20260506110047 33 0 0.0 3.0 0.00 0.00 0.00 72 1020.2
20260506110014 33 330 0.0 3.0 0.00 0.00 0.00 72 1014.5
20260506104543 32 0 0.0 3.0 0.00 0.00 0.00 73 1020.2
20260506104513 32 331 0.0 3.0 0.00 0.00 0.00 74 1014.5
20260506103045 32 331 0.0 2.0 0.00 0.00 0.00 73 1020.1
20260506103012 32 331 0.0 2.0 0.00 0.00 0.00 73 1014.4
20260506101552 33 332 0.0 4.0 0.00 0.00 0.00 71 1020.1
20260506101507 33 332 0.0 4.0 0.00 0.00 0.00 72 1014.3
20260506100059 33 332 0.0 3.0 0.00 0.00 0.00 71 1020.1
20260506100009 33 332 0.0 3.0 0.00 0.00 0.00 71 1014.3
20260506094540 34 0 0.0 3.0 0.00 0.00 0.00 70 1020.2
20260506094506 34 333 0.0 3.0 0.00 0.00 0.00 71 1014.4
20260506093043 34 0 0.0 3.0 0.00 0.00 0.00 70 1020.1
20260506093002 34 333 0.0 3.0 0.00 0.00 0.00 71 1014.4
20260506091607 34 335 0.0 4.0 0.00 0.00 0.00 71 1014.2
20260506091538 34 335 0.0 4.0 0.00 0.00 0.00 71 1019.9
20260506090059 34 335 0.0 3.0 0.00 0.00 0.00 72 1013.9
20260506090035 34 0 0.0 3.0 0.00 0.00 0.00 72 1019.8
20260506084613 34 336 0.0 2.0 0.00 0.00 0.00 73 1013.7
20260506084559 34 0 0.0 2.0 0.00 0.00 0.00 72 1019.6
20260506083053 35 336 0.0 3.0 0.00 0.00 0.00 74 1013.7
20260506083040 35 0 0.0 3.0 0.00 0.00 0.00 72 1019.6
20260506081551 35 336 0.0 2.0 0.00 0.00 0.00 73 1013.7
20260506081546 35 336 0.0 2.0 0.00 0.00 0.00 72 1019.6
20260506073055 35 336 0.0 0.0 0.00 0.00 0.00 73 1013.6
20260506073046 35 0 0.0 0.0 0.00 0.00 0.00 72 1019.5
20260506071547 35 336 0.0 0.0 0.00 0.00 0.00 73 1013.5
20260506071541 35 0 0.0 0.0 0.00 0.00 0.00 73 1019.5
20260506061553 36 336 0.0 0.0 0.00 0.00 0.00 66 1013.5
20260506061537 36 0 0.0 0.0 0.00 0.00 0.00 66 1019.5
20260506044629 37 0 0.0 3.0 0.00 0.00 0.00 64 1019.1
20260506044539 37 336 0.0 3.0 0.00 0.00 0.00 64 1013.2
20260506043040 38 0 0.0 5.0 0.00 0.00 0.00 63 1019.1
20260506043038 38 336 0.0 5.0 0.00 0.00 0.00 63 1013.3
20260506041538 39 335 1.0 4.0 0.00 0.00 0.00 59 1019.1
20260506041533 39 335 1.0 3.0 0.00 0.00 0.00 59 1013.2
20260506040039 39 0 0.0 8.0 0.00 0.00 0.00 58 1019.1
20260506040028 39 336 0.0 8.0 0.00 0.00 0.00 58 1013.1
20260506034602 39 340 2.0 8.0 0.00 0.00 0.00 59 1018.9
20260506034528 39 340 1.0 8.0 0.00 0.00 0.00 59 1013.1
20260506033037 39 302 0.0 3.0 0.00 0.00 0.00 63 1018.9
20260506033027 39 302 0.0 3.0 0.00 0.00 0.00 64 1013.1
20260506031543 39 0 0.0 1.0 0.00 0.00 0.00 61 1018.8
20260506031536 39 302 0.0 0.0 0.00 0.00 0.00 63 1013.0
20260506030041 39 0 0.0 2.0 0.00 0.00 0.00 63 1018.8
20260506030029 39 302 0.0 2.0 0.00 0.00 0.00 64 1012.9
20260506024541 40 0 0.0 3.0 0.00 0.00 0.00 62 1018.5
20260506024538 40 302 0.0 3.0 0.00 0.00 0.00 63 1012.7
20260506023059 40 301 1.0 3.0 0.00 0.00 0.00 55 1018.3
20260506023022 40 301 0.0 3.0 0.00 0.00 0.00 55 1012.6
20260506021536 41 0 0.0 2.0 0.00 0.00 0.00 56 1018.1
20260506021521 41 301 0.0 1.0 0.00 0.00 0.00 56 1012.3
20260506020044 41 301 0.0 5.0 0.00 0.00 0.00 54 1018.0
20260506020020 41 301 0.0 5.0 0.00 0.00 0.00 54 1012.3
20260506014542 41 0 1.0 5.0 0.00 0.00 0.00 53 1018.0
20260506014522 41 289 0.0 5.0 0.00 0.00 0.00 54 1012.2
20260506013041 41 0 1.0 3.0 0.00 0.00 0.00 52 1017.8
20260506013017 41 288 0.0 3.0 0.00 0.00 0.00 52 1011.9
20260506011536 41 288 0.0 5.0 0.00 0.00 0.00 52 1017.6
20260506011515 41 288 0.0 5.0 0.00 0.00 0.00 52 1011.8
20260506010042 41 289 1.0 8.0 0.00 0.00 0.00 50 1017.4
20260506010014 41 289 2.0 5.0 0.00 0.00 0.00 51 1011.6
20260506004557 42 285 3.0 11.0 0.00 0.00 0.00 49 1017.4
20260506004514 42 285 4.0 11.0 0.00 0.00 0.00 49 1011.4
20260506003056 43 284 3.0 12.0 0.00 0.00 0.00 49 1017.2
20260506003014 43 247 4.0 11.0 0.00 0.00 0.00 49 1011.5
20260506001541 43 291 3.0 13.0 0.00 0.00 0.00 47 1017.3
20260506001513 43 292 3.0 13.0 0.00 0.00 0.00 48 1011.5
20260506000040 43 271 3.0 11.0 0.00 0.00 0.00 47 1017.4
20260506000012 43 270 4.0 11.0 0.00 0.00 0.00 49 1011.5
20260505234557 43 0 4.0 13.0 0.00 0.00 0.00 46 1017.4
20260505234512 43 288 4.0 13.0 0.00 0.00 0.00 46 1011.6
20260505233039 43 237 6.0 17.0 0.00 0.00 0.00 45 1017.4
20260505233011 43 271 7.0 17.0 0.00 0.00 0.00 45 1011.6
20260505231537 44 234 7.0 15.0 0.00 0.00 0.00 44 1017.2
20260505231511 44 300 7.0 15.0 0.00 0.00 0.00 44 1011.3
20260505230044 44 313 6.0 17.0 0.00 0.00 0.00 45 1017.2
20260505230010 44 309 4.0 13.0 0.00 0.00 0.00 45 1011.4
20260505224541 44 253 3.0 10.0 0.00 0.00 0.00 45 1017.3
20260505224509 44 249 4.0 9.0 0.00 0.00 0.00 46 1011.3
20260505223039 43 289 4.0 11.0 0.00 0.00 0.00 45 1017.2
20260505223008 43 284 4.0 11.0 0.00 0.00 0.00 46 1011.4